Location: Newark
(55.2875°N, 3.1864°W)
Time: 14:13:27
(UTC+00:00)

ISS - Visible Passes

Search period start: 26 January 2020 00:00
Search period end: 05 February 2020 00:00
Orbit: 416 x 423 km, 51.6° (Epoch: 27 January)

Date Brightness Start Highest point End Pass type
(mag) Time Alt. Az. Time Alt. Az. Time Alt. Az.
26 Jan -1.6 17:26:43 10° SSW 17:29:02 17° SSE 17:31:21 10° ESE visible
26 Jan -2.7 19:02:05 10° WSW 19:04:54 37° S 19:04:54 37° S visible
27 Jan -2.6 18:14:45 10° SW 18:17:51 33° SSE 18:19:21 22° ESE visible
27 Jan -1.2 19:51:03 10° WSW 19:52:18 20° WSW 19:52:18 20° WSW visible
28 Jan -2.2 17:27:29 10° SW 17:30:26 28° SSE 17:33:23 10° E visible
28 Jan -3.0 19:03:36 10° WSW 19:06:44 45° S 19:06:44 45° S visible
29 Jan -3.0 18:16:08 10° WSW 18:19:23 43° S 18:21:08 22° ESE visible
29 Jan -1.2 19:52:42 10° W 19:54:06 21° WSW 19:54:06 21° WSW visible
30 Jan -2.7 17:28:44 10° WSW 17:31:55 39° SSE 17:35:07 10° E visible
30 Jan -3.0 19:05:11 10° W 19:08:25 42° S 19:08:31 41° S visible
31 Jan -2.9 18:17:39 10° WSW 18:20:55 44° S 18:22:57 20° ESE visible
31 Jan -1.2 19:54:25 10° W 19:55:55 19° WSW 19:55:55 19° WSW visible
01 Feb -2.9 17:30:10 10° WSW 17:33:26 45° S 17:36:41 10° ESE visible
01 Feb -2.4 19:06:48 10° W 19:09:52 32° SSW 19:10:23 30° S visible
02 Feb -2.5 18:19:13 10° W 18:22:24 37° SSW 18:24:54 14° SE visible
02 Feb -1.0 19:56:27 10° WSW 19:57:52 15° SW 19:57:52 15° SW visible
03 Feb -2.6 17:31:40 10° W 17:34:53 42° S 17:38:06 10° ESE visible
03 Feb -1.6 19:08:35 10° WSW 19:11:12 21° SSW 19:12:28 17° S visible
04 Feb -1.8 18:20:52 10° W 18:23:44 26° SSW 18:26:37 10° SE visible
